Weather Roundup
Issued by NWS Springfield, MO

Home | Current Version | Previous Version | Text Only | Print | Product List | Glossary On
Versions: 1 2 3 4 5 6 7 8 9 10 11 12 13 14 15 16 17 18 19 20 21 22 23 24 25 26 27 28 29 30 31 32 33 34 35 36 37 38 39 40 41 42 43 44 45 46 47 48 49 50
000
NZUS99 KSGF 190007
HRRSGF

HOURLY WEATHER
NATIONAL WEATHER SERVICE SPRINGFIELD MO
700 PM CDT FRI AUG 18 2017

......SGF CWA......

CITY           SKY/WX    TMP DP  RH WIND       PRES   REMARKS
SPRINGFIELD    CLOUDY    79  67  66 S15G22    29.94F
6HR MIN TEMP:  79; 6HR MAX TEMP:  86;

JOPLIN         CLOUDY    82  72  71 SE12G18   29.95R
6HR MIN TEMP:  82; 6HR MAX TEMP:  89;

WEST PLAINS    PTCLDY    81  65  58 S6        29.98S
6HR MIN TEMP:  81; 6HR MAX TEMP:  85;

ROLLA          CLEAR     77  69  76 SE6       29.96F
6HR MIN TEMP:  77; 6HR MAX TEMP:  82;

OSAGE BEACH    MOSUNNY   81  73  76 S6        29.93F
BRANSON        TSTM      77  75  94 SW5       30.00R

......SURROUNDING SGF CWA......

CITY           SKY/WX    TMP DP  RH WIND       PRES   REMARKS
CHANUTE        SUNNY     86  70  58 S8        29.92F HX  90
PARSONS        SUNNY     87  70  56 W3        29.93S HX  92
COFFEYVILLE    SUNNY     88  70  55 W6        29.89S HX  93
EMPORIA        SUNNY     87  67  51 SW7       29.91F HX  90
GROVE OK       PTSUNNY   79  70  73 E6        29.95R
ROGERS AR      CLOUDY    72  70  93 E12       30.01  THUNDER
SILOAM SPRINGS CLOUDY    75  68  78 E5        29.96S
HARRISON AR    TSTM      82  71  69 CALM      29.99R
NEAR YELLVILLE CLOUDY    84  68  58 CALM      29.93S

......KANSAS AND MISSOURI......

CITY           SKY/WX    TMP DP  RH WIND       PRES   REMARKS
KANSAS CTY INT CLOUDY    74  67  78 E12       29.91S
DOWNTOWN KC    PTSUNNY   87  69  54 SW5       29.88S HX  91
COLUMBIA       CLOUDY    80  68  66 S10       29.92F
SEDALIA        SUNNY     82  76  81 S9        29.92F
ST JOSEPH      CLOUDY    82  71  69 N5        29.89R
ST LOUIS       CLOUDY    84  65  52 SW14      29.92S
SPIRIT OF STL  CLOUDY    80  68  66 SW6       29.91S
KIRKSVILLE     CLOUDY    80  64  58 W5        29.89F
WICHITA        MOSUNNY   89  69  51 S12       29.92S HX  93
TOPEKA         SUNNY     88  67  49 W7        29.89S HX  91
OLATHE         SUNNY     85  69  58 SW6       29.91S

......TENNESSEE......

CITY           SKY/WX    TMP DP  RH WIND       PRES   REMARKS
MEMPHIS        PTCLDY    87  69  54 SW6       29.95F HX  91
NASHVILLE      CLEAR     84  64  50 W6        29.98R

......ARKANSAS.......

CITY           SKY/WX    TMP DP  RH WIND       PRES   REMARKS
FAYETTEVILLE   HVY RAIN  74  69  85 NW25G36   29.98R
FT SMITH       SUNNY     90  74  59 SW9       29.90F HX  99
LITTLE ROCK    PTCLDY    88  71  57 S6        29.93F HX  94

......OKLAHOMA.......

CITY           SKY/WX    TMP DP  RH WIND       PRES   REMARKS
TULSA          MOSUNNY   91  71  51 W12       29.89F HX  97
PONCA CITY     SUNNY     90  67  46 VRB5      29.91F HX  93
MCALESTER      SUNNY     90  76  63 SW7       29.94S HX 101
OKLAHOMA CITY  MOSUNNY   88  71  57 SW12      29.95S HX  94

......IOWA............

CITY           SKY/WX    TMP DP  RH WIND       PRES   REMARKS
DES MOINES     MOSUNNY   85  61  44 NW5       29.86S
QUAD CITIES    CLEAR     80  64  58 NW6       29.87R

......ILLINOIS........

CITY           SKY/WX    TMP DP  RH WIND       PRES   REMARKS
QUINCY         PTCLDY    81  67  62 SW12      29.88R
CHICAGO        PTCLDY    79  59  50 W12       29.85R




USA.gov is the U.S. government's official web portal to all federal, state and local government web resources and services.